Location: Newark
(52.3500°N, 175.9667°E)
Time: 09:52:19
(UTC+00:00)

Transit 4A - Pass Details

Date: 27 April 2021
Orbit: 870 x 974 km, 66.8° (Epoch: 07 May)

Event Time Altitude Azimuth Distance (km) Brightness Sun altitude
Rises 15:54:14 0° 313° (NW) 3,551 10.8 -8.4°
Reaches altitude 10° 15:57:14 10° 326° (NW) 2,590 10.3 -8.1°
Maximum altitude 16:02:10 26° 21° (NNE) 1,694 10.1 -7.4°
Drops below altitude 10° 16:07:00 10° 77° (ENE) 2,539 11.5 -6.8°
Sets 16:09:55 0° 90° (E) 3,467 12.0 -6.5°
